Year,Month,Day,Hour,Minute,Value (Times are PST for temperature in C)
2008,09,13,00,00,13.50
2008,09,13,00,02,13.50
2008,09,13,00,04,13.50
2008,09,13,00,05,13.40
2008,09,13,00,07,13.40
2008,09,13,00,08,13.40
2008,09,13,00,09,13.40
2008,09,13,00,10,13.40
2008,09,13,00,11,13.40
2008,09,13,00,12,13.40
2008,09,13,00,13,13.30
2008,09,13,00,14,13.30
2008,09,13,00,15,13.30
2008,09,13,00,16,13.30
2008,09,13,00,17,13.30
2008,09,13,00,18,13.30
2008,09,13,00,19,13.30
2008,09,13,00,21,13.20
2008,09,13,00,22,13.20
2008,09,13,00,23,13.20
2008,09,13,00,24,13.20
2008,09,13,00,26,13.10
2008,09,13,00,28,13.10
2008,09,13,00,29,13.10
2008,09,13,00,31,13.00
2008,09,13,00,33,13.00
2008,09,13,00,34,12.90
2008,09,13,00,35,12.90
2008,09,13,00,36,12.90
2008,09,13,00,37,12.90
2008,09,13,00,38,12.90
2008,09,13,00,39,12.90
2008,09,13,00,40,12.90
2008,09,13,00,41,12.80
2008,09,13,00,42,12.80
2008,09,13,00,43,12.80
2008,09,13,00,45,12.80
2008,09,13,00,47,12.80
2008,09,13,00,48,12.70
2008,09,13,00,49,12.70
2008,09,13,00,50,12.70
2008,09,13,00,51,12.70
2008,09,13,00,53,12.70
2008,09,13,00,54,12.60
2008,09,13,00,55,12.60
2008,09,13,00,56,12.60
2008,09,13,00,57,12.60
2008,09,13,00,58,12.60
2008,09,13,00,59,12.50
2008,09,13,01,01,12.50
2008,09,13,01,02,12.40
2008,09,13,01,03,12.40
2008,09,13,01,04,12.40
2008,09,13,01,05,12.40
2008,09,13,01,06,12.40
2008,09,13,01,07,12.40
2008,09,13,01,08,12.40
2008,09,13,01,09,12.30
2008,09,13,01,10,12.30
2008,09,13,01,11,12.30
2008,09,13,01,12,12.30
2008,09,13,01,14,12.40
2008,09,13,01,15,12.40
2008,09,13,01,16,12.40
2008,09,13,01,17,12.40
2008,09,13,01,18,12.40
2008,09,13,01,19,12.40
2008,09,13,01,20,12.40
2008,09,13,01,21,12.30
2008,09,13,01,22,12.30
2008,09,13,01,23,12.30
2008,09,13,01,24,12.30
2008,09,13,01,26,12.30
2008,09,13,01,27,12.30
2008,09,13,01,28,12.30
2008,09,13,01,29,12.30
2008,09,13,01,31,12.20
2008,09,13,01,32,12.20
2008,09,13,01,33,12.20
2008,09,13,01,34,12.20
2008,09,13,01,35,12.20
2008,09,13,01,36,12.20
2008,09,13,01,38,12.10
2008,09,13,01,39,12.10
2008,09,13,01,40,12.10
2008,09,13,01,41,12.10
2008,09,13,01,42,12.00
2008,09,13,01,43,12.00
2008,09,13,01,44,12.00
2008,09,13,01,45,12.00
2008,09,13,01,46,11.90
2008,09,13,01,47,11.90
2008,09,13,01,48,11.90
2008,09,13,01,49,11.90
2008,09,13,01,50,11.90
2008,09,13,01,51,11.90
2008,09,13,01,52,11.80
2008,09,13,01,53,11.80
2008,09,13,01,54,11.80
2008,09,13,01,55,11.80
2008,09,13,01,56,11.80
2008,09,13,01,57,11.70
2008,09,13,01,58,11.70
2008,09,13,01,59,11.70
2008,09,13,02,00,11.70
2008,09,13,02,01,11.70
2008,09,13,02,02,11.70
2008,09,13,02,03,11.60
2008,09,13,02,04,11.60
2008,09,13,02,05,11.60
2008,09,13,02,06,11.60
2008,09,13,02,07,11.60
2008,09,13,02,08,11.50
2008,09,13,02,09,11.50
2008,09,13,02,10,11.40
2008,09,13,02,11,11.40
2008,09,13,02,12,11.40
2008,09,13,02,13,11.40
2008,09,13,02,14,11.40
2008,09,13,02,15,11.30
2008,09,13,02,17,11.30
2008,09,13,02,18,11.30
2008,09,13,02,19,11.30
2008,09,13,02,20,11.30
2008,09,13,02,21,11.30
2008,09,13,02,22,11.30
2008,09,13,02,23,11.20
2008,09,13,02,24,11.20
2008,09,13,02,25,11.20
2008,09,13,02,26,11.20
2008,09,13,02,27,11.20
2008,09,13,02,28,11.20
2008,09,13,02,29,11.20
2008,09,13,02,30,11.20
2008,09,13,02,31,11.10
2008,09,13,02,32,11.10
2008,09,13,02,33,11.10
2008,09,13,02,34,11.10
2008,09,13,02,35,11.10
2008,09,13,02,36,11.10
2008,09,13,02,37,11.10
2008,09,13,02,38,11.10
2008,09,13,02,39,11.00
2008,09,13,02,40,11.00
2008,09,13,02,41,11.00
2008,09,13,02,42,11.00
2008,09,13,02,43,10.90
2008,09,13,02,44,10.90
2008,09,13,02,45,10.90
2008,09,13,02,46,10.90
2008,09,13,02,47,10.90
2008,09,13,02,48,10.90
2008,09,13,02,49,10.90
2008,09,13,02,50,10.90
2008,09,13,02,51,10.90
2008,09,13,02,52,10.90
2008,09,13,02,53,10.80
2008,09,13,02,54,10.80
2008,09,13,02,55,10.80
2008,09,13,02,56,10.80
2008,09,13,02,57,10.80
2008,09,13,02,58,10.80
2008,09,13,02,59,10.80
2008,09,13,03,00,10.80
2008,09,13,03,01,10.80
2008,09,13,03,02,10.80
2008,09,13,03,03,10.80
2008,09,13,03,04,10.80
2008,09,13,03,05,10.80
2008,09,13,03,06,10.80
2008,09,13,03,07,10.80
2008,09,13,03,08,10.80
2008,09,13,03,09,10.80
2008,09,13,03,10,10.80
2008,09,13,03,11,10.80
2008,09,13,03,12,10.90
2008,09,13,03,13,10.90
2008,09,13,03,14,10.90
2008,09,13,03,15,10.90
2008,09,13,03,16,11.00
2008,09,13,03,17,11.00
2008,09,13,03,18,11.00
2008,09,13,03,19,11.00
2008,09,13,03,20,11.00
2008,09,13,03,21,11.00
2008,09,13,03,22,11.00
2008,09,13,03,23,11.00
2008,09,13,03,24,11.00
2008,09,13,03,25,11.00
2008,09,13,03,26,11.00
2008,09,13,03,27,11.00
2008,09,13,03,28,11.00
2008,09,13,03,29,11.00
2008,09,13,03,30,10.90
2008,09,13,03,31,10.90
2008,09,13,03,32,10.90
2008,09,13,03,33,10.90
2008,09,13,03,34,10.90
2008,09,13,03,35,10.90
2008,09,13,03,36,10.90
2008,09,13,03,37,10.90
2008,09,13,03,38,10.90
2008,09,13,03,39,10.90
2008,09,13,03,40,10.90
2008,09,13,03,41,10.90
2008,09,13,03,42,10.90
2008,09,13,03,43,10.90
2008,09,13,03,44,10.90
2008,09,13,03,45,10.90
2008,09,13,03,46,10.90
2008,09,13,03,47,10.80
2008,09,13,03,48,10.80
2008,09,13,03,49,10.80
2008,09,13,03,50,10.80
2008,09,13,03,51,10.80
2008,09,13,03,52,10.80
2008,09,13,03,53,10.80
2008,09,13,03,54,10.80
2008,09,13,03,55,10.70
2008,09,13,03,56,10.70
2008,09,13,03,57,10.70
2008,09,13,03,58,10.70
2008,09,13,03,59,10.60
2008,09,13,04,00,10.60
2008,09,13,04,01,10.60
2008,09,13,04,02,10.60
2008,09,13,04,03,10.60
2008,09,13,04,04,10.50
2008,09,13,04,05,10.50
2008,09,13,04,06,10.50
2008,09,13,04,07,10.40
2008,09,13,04,08,10.40
2008,09,13,04,09,10.40
2008,09,13,04,10,10.40
2008,09,13,04,11,10.40
2008,09,13,04,12,10.40
2008,09,13,04,13,10.40
2008,09,13,04,14,10.40
2008,09,13,04,15,10.40
2008,09,13,04,16,10.40
2008,09,13,04,17,10.40
2008,09,13,04,18,10.40
2008,09,13,04,19,10.40
2008,09,13,04,20,10.30
2008,09,13,04,21,10.30
2008,09,13,04,22,10.30
2008,09,13,04,23,10.30
2008,09,13,04,24,10.30
2008,09,13,04,25,10.30
2008,09,13,04,26,10.30
2008,09,13,04,27,10.30
2008,09,13,04,28,10.30
2008,09,13,04,29,10.30
2008,09,13,04,30,10.30
2008,09,13,04,31,10.30
2008,09,13,04,32,10.30
2008,09,13,04,33,10.20
2008,09,13,04,34,10.20
2008,09,13,04,35,10.20
2008,09,13,04,36,10.20
2008,09,13,04,37,10.20
2008,09,13,04,38,10.20
2008,09,13,04,39,10.20
2008,09,13,04,40,10.20
2008,09,13,04,41,10.20
2008,09,13,04,42,10.20
2008,09,13,04,43,10.20
2008,09,13,04,44,10.20
2008,09,13,04,45,10.20
2008,09,13,04,46,10.20
2008,09,13,04,47,10.20
2008,09,13,04,48,10.10
2008,09,13,04,49,10.10
2008,09,13,04,50,10.10
2008,09,13,04,51,10.10
2008,09,13,04,52,10.10
2008,09,13,04,53,10.10
2008,09,13,04,54,10.10
2008,09,13,04,55,10.00
2008,09,13,04,56,10.00
2008,09,13,04,57,10.00
2008,09,13,04,58,10.00
2008,09,13,04,59,9.90
2008,09,13,05,00,9.90
2008,09,13,05,01,9.90
2008,09,13,05,02,9.90
2008,09,13,05,03,9.90
2008,09,13,05,04,9.90
2008,09,13,05,05,9.90
2008,09,13,05,06,9.90
2008,09,13,05,07,9.80
2008,09,13,05,08,9.80
2008,09,13,05,09,9.80
2008,09,13,05,10,9.80
2008,09,13,05,11,9.80
2008,09,13,05,12,9.80
2008,09,13,05,13,9.80
2008,09,13,05,14,9.80
2008,09,13,05,15,9.80
2008,09,13,05,16,9.80
2008,09,13,05,17,9.80
2008,09,13,05,18,9.80
2008,09,13,05,19,9.80
2008,09,13,05,20,9.80
2008,09,13,05,21,9.80
2008,09,13,05,22,9.80
2008,09,13,05,23,9.80
2008,09,13,05,24,9.80
2008,09,13,05,25,9.70
2008,09,13,05,26,9.70
2008,09,13,05,27,9.70
2008,09,13,05,28,9.70
2008,09,13,05,29,9.70
2008,09,13,05,30,9.60
2008,09,13,05,31,9.60
2008,09,13,05,32,9.60
2008,09,13,05,33,9.60
2008,09,13,05,34,9.60
2008,09,13,05,35,9.60
2008,09,13,05,36,9.50
2008,09,13,05,37,9.50
2008,09,13,05,38,9.40
2008,09,13,05,39,9.40
2008,09,13,05,40,9.40
2008,09,13,05,41,9.40
2008,09,13,05,43,9.40
2008,09,13,05,44,9.40
2008,09,13,05,45,9.40
2008,09,13,05,46,9.30
2008,09,13,05,47,9.30
2008,09,13,05,48,9.30
2008,09,13,05,49,9.30
2008,09,13,05,50,9.30
2008,09,13,05,51,9.30
2008,09,13,05,52,9.30
2008,09,13,05,53,9.30
2008,09,13,05,54,9.30
2008,09,13,05,55,9.30
2008,09,13,05,56,9.30
2008,09,13,05,57,9.30
2008,09,13,05,58,9.30
2008,09,13,05,59,9.30
2008,09,13,06,00,9.30
2008,09,13,06,01,9.30
2008,09,13,06,02,9.20
2008,09,13,06,03,9.20
2008,09,13,06,04,9.20
2008,09,13,06,05,9.20
2008,09,13,06,06,9.20
2008,09,13,06,07,9.20
2008,09,13,06,08,9.20
2008,09,13,06,09,9.10
2008,09,13,06,10,9.10
2008,09,13,06,11,9.10
2008,09,13,06,12,9.10
2008,09,13,06,13,9.10
2008,09,13,06,14,9.00
2008,09,13,06,15,9.00
2008,09,13,06,16,8.90
2008,09,13,06,17,8.90
2008,09,13,06,18,8.90
2008,09,13,06,19,8.90
2008,09,13,06,20,8.90
2008,09,13,06,21,8.90
2008,09,13,06,22,8.80
2008,09,13,06,23,8.80
2008,09,13,06,24,8.80
2008,09,13,06,25,8.80
2008,09,13,06,26,8.80
2008,09,13,06,27,8.80
2008,09,13,06,28,8.80
2008,09,13,06,29,8.80
2008,09,13,06,30,8.70
2008,09,13,06,31,8.70
2008,09,13,06,32,8.70
2008,09,13,06,33,8.70
2008,09,13,06,34,8.70
2008,09,13,06,35,8.70
2008,09,13,06,36,8.70
2008,09,13,06,37,8.60
2008,09,13,06,38,8.60
2008,09,13,06,39,8.60
2008,09,13,06,40,8.60
2008,09,13,06,41,8.60
2008,09,13,06,42,8.60
2008,09,13,06,43,8.60
2008,09,13,06,44,8.50
2008,09,13,06,45,8.50
2008,09,13,06,46,8.50
2008,09,13,06,47,8.50
2008,09,13,06,48,8.50
2008,09,13,06,49,8.40
2008,09,13,06,50,8.40
2008,09,13,06,51,8.40
2008,09,13,06,52,8.40
2008,09,13,06,53,8.40
2008,09,13,06,54,8.40
2008,09,13,06,55,8.40
2008,09,13,06,56,8.40
2008,09,13,06,57,8.40
2008,09,13,06,58,8.40
2008,09,13,06,59,8.40
2008,09,13,07,00,8.40
2008,09,13,07,01,8.40
2008,09,13,07,02,8.40
2008,09,13,07,03,8.30
2008,09,13,07,04,8.30
2008,09,13,07,05,8.30
2008,09,13,07,06,8.30
2008,09,13,07,07,8.30
2008,09,13,07,08,8.30
2008,09,13,07,09,8.30
2008,09,13,07,10,8.30
2008,09,13,07,11,8.30
2008,09,13,07,12,8.30
2008,09,13,07,13,8.30
2008,09,13,07,14,8.30
2008,09,13,07,15,8.30
2008,09,13,07,16,8.30
2008,09,13,07,17,8.30
2008,09,13,07,18,8.30
2008,09,13,07,19,8.30
2008,09,13,07,20,8.30
2008,09,13,07,21,8.30
2008,09,13,07,22,8.30
2008,09,13,07,23,8.30
2008,09,13,07,24,8.30
2008,09,13,07,25,8.30
2008,09,13,07,26,8.30
2008,09,13,07,27,8.30
2008,09,13,07,28,8.30
2008,09,13,07,29,8.30
2008,09,13,07,30,8.30
2008,09,13,07,31,8.30
2008,09,13,07,32,8.30
2008,09,13,07,33,8.30
2008,09,13,07,34,8.40
2008,09,13,07,35,8.40
2008,09,13,07,36,8.40
2008,09,13,07,37,8.40
2008,09,13,07,38,8.50
2008,09,13,07,39,8.50
2008,09,13,07,40,8.60
2008,09,13,07,41,8.60
2008,09,13,07,42,8.60
2008,09,13,07,43,8.60
2008,09,13,07,44,8.70
2008,09,13,07,45,8.70
2008,09,13,07,46,8.80
2008,09,13,07,47,8.90
2008,09,13,07,48,8.90
2008,09,13,07,49,9.10
2008,09,13,07,50,9.10
2008,09,13,07,51,9.20
2008,09,13,07,52,9.30
2008,09,13,07,53,9.30
2008,09,13,07,54,9.40
2008,09,13,07,55,9.50
2008,09,13,07,56,9.60
2008,09,13,07,57,9.60
2008,09,13,07,58,9.60
2008,09,13,07,59,9.70
2008,09,13,08,00,9.70
2008,09,13,08,01,9.80
2008,09,13,08,02,9.80
2008,09,13,08,03,9.90
2008,09,13,08,04,9.90
2008,09,13,08,05,10.00
2008,09,13,08,06,10.10
2008,09,13,08,07,10.10
2008,09,13,08,08,10.10
2008,09,13,08,09,10.20
2008,09,13,08,10,10.20
2008,09,13,08,11,10.20
2008,09,13,08,12,10.20
2008,09,13,08,13,10.20
2008,09,13,08,14,10.20
2008,09,13,08,15,10.20
2008,09,13,08,16,10.20
2008,09,13,08,17,10.20
2008,09,13,08,18,10.20
2008,09,13,08,19,10.20
2008,09,13,08,20,10.20
2008,09,13,08,21,10.30
2008,09,13,08,22,10.30
2008,09,13,08,23,10.30
2008,09,13,08,24,10.30
2008,09,13,08,25,10.30
2008,09,13,08,26,10.30
2008,09,13,08,27,10.30
2008,09,13,08,28,10.40
2008,09,13,08,29,10.40
2008,09,13,08,30,10.60
2008,09,13,08,31,10.60
2008,09,13,08,32,10.70
2008,09,13,08,33,10.70
2008,09,13,08,34,10.70
2008,09,13,08,35,10.80
2008,09,13,08,36,10.80
2008,09,13,08,37,10.80
2008,09,13,08,38,10.80
2008,09,13,08,39,10.90
2008,09,13,08,40,10.90
2008,09,13,08,41,11.00
2008,09,13,08,42,11.10
2008,09,13,08,43,11.20
2008,09,13,08,44,11.20
2008,09,13,08,45,11.30
2008,09,13,08,46,11.40
2008,09,13,08,47,11.40
2008,09,13,08,48,11.50
2008,09,13,08,49,11.60
2008,09,13,08,50,11.70
2008,09,13,08,51,11.80
2008,09,13,08,52,11.80
2008,09,13,08,53,11.90
2008,09,13,08,54,12.10
2008,09,13,08,55,12.20
2008,09,13,08,56,12.30
2008,09,13,08,57,12.40
2008,09,13,08,58,12.60
2008,09,13,08,59,12.70
2008,09,13,09,00,12.80
2008,09,13,09,01,12.90
2008,09,13,09,02,13.00
2008,09,13,09,03,13.10
2008,09,13,09,04,13.30
2008,09,13,09,05,13.40
2008,09,13,09,06,13.50
2008,09,13,09,07,13.70
2008,09,13,09,08,13.70
2008,09,13,09,09,13.80
2008,09,13,09,10,13.90
2008,09,13,09,11,14.00
2008,09,13,09,12,14.10
2008,09,13,09,13,14.20
2008,09,13,09,14,14.30
2008,09,13,09,15,14.40
2008,09,13,09,16,14.50
2008,09,13,09,17,14.60
2008,09,13,09,18,14.60
2008,09,13,09,19,14.60
2008,09,13,09,20,14.60
2008,09,13,09,21,14.50
2008,09,13,09,22,14.50
2008,09,13,09,23,14.60
2008,09,13,09,24,14.70
2008,09,13,09,25,14.70
2008,09,13,09,26,14.80
2008,09,13,09,27,14.80
2008,09,13,09,28,14.90
2008,09,13,09,29,14.90
2008,09,13,09,30,14.90
2008,09,13,09,31,14.90
2008,09,13,09,32,14.80
2008,09,13,09,33,14.80
2008,09,13,09,34,14.80
2008,09,13,09,35,14.70
2008,09,13,09,36,14.70
2008,09,13,09,37,14.70
2008,09,13,09,38,14.70
2008,09,13,09,39,14.80
2008,09,13,09,40,14.80
2008,09,13,09,41,14.80
2008,09,13,09,42,14.80
2008,09,13,09,43,14.80
2008,09,13,09,44,14.80
2008,09,13,09,45,14.80
2008,09,13,09,46,14.90
2008,09,13,09,47,15.00
2008,09,13,09,48,15.00
2008,09,13,09,49,15.20
2008,09,13,09,50,15.30
2008,09,13,09,51,15.60
2008,09,13,09,52,15.60
2008,09,13,09,53,15.70
2008,09,13,09,54,15.80
2008,09,13,09,55,15.90
2008,09,13,09,56,15.90
2008,09,13,09,57,15.90
2008,09,13,09,58,16.00
2008,09,13,09,59,16.10
2008,09,13,10,00,16.20
2008,09,13,10,01,16.30
2008,09,13,10,02,16.40
2008,09,13,10,03,16.40
2008,09,13,10,04,16.40
2008,09,13,10,05,16.40
2008,09,13,10,06,16.30
2008,09,13,10,07,16.20
2008,09,13,10,08,16.20
2008,09,13,10,09,16.30
2008,09,13,10,10,16.30
2008,09,13,10,11,16.30
2008,09,13,10,12,16.40
2008,09,13,10,13,16.40
2008,09,13,10,14,16.40
2008,09,13,10,15,16.50
2008,09,13,10,16,16.60
2008,09,13,10,17,16.60
2008,09,13,10,18,16.70
2008,09,13,10,19,16.70
2008,09,13,10,20,16.80
2008,09,13,10,21,16.80
2008,09,13,10,22,16.80
2008,09,13,10,23,16.90
2008,09,13,10,24,16.90
2008,09,13,10,25,17.10
2008,09,13,10,26,17.10
2008,09,13,10,27,17.10
2008,09,13,10,28,17.20
2008,09,13,10,29,17.20
2008,09,13,10,30,17.30
2008,09,13,10,31,17.30
2008,09,13,10,32,17.40
2008,09,13,10,33,17.40
2008,09,13,10,34,17.50
2008,09,13,10,35,17.60
2008,09,13,10,36,17.60
2008,09,13,10,37,17.60
2008,09,13,10,38,17.60
2008,09,13,10,39,17.60
2008,09,13,10,40,17.60
2008,09,13,10,41,17.60
2008,09,13,10,42,17.70
2008,09,13,10,44,17.70
2008,09,13,10,45,17.80
2008,09,13,10,46,17.80
2008,09,13,10,47,17.90
2008,09,13,10,48,17.90
2008,09,13,10,49,18.00
2008,09,13,10,50,18.10
2008,09,13,10,51,18.20
2008,09,13,10,52,18.20
2008,09,13,10,53,18.30
2008,09,13,10,54,18.40
2008,09,13,10,55,18.50
2008,09,13,10,56,18.60
2008,09,13,10,57,18.60
2008,09,13,10,58,18.60
2008,09,13,10,59,18.60
2008,09,13,11,00,18.60
2008,09,13,11,01,18.60
2008,09,13,11,02,18.60
2008,09,13,11,03,18.60
2008,09,13,11,04,18.60
2008,09,13,11,05,18.60
2008,09,13,11,06,18.70
2008,09,13,11,07,18.70
2008,09,13,11,08,18.70
2008,09,13,11,09,18.80
2008,09,13,11,10,18.80
2008,09,13,11,11,18.90
2008,09,13,11,12,18.90
2008,09,13,11,13,18.90
2008,09,13,11,14,18.80
2008,09,13,11,15,18.80
2008,09,13,11,16,18.70
2008,09,13,11,17,18.70
2008,09,13,11,18,18.60
2008,09,13,11,19,18.60
2008,09,13,11,20,18.70
2008,09,13,11,21,18.60
2008,09,13,11,22,18.70
2008,09,13,11,23,18.70
2008,09,13,11,24,18.60
2008,09,13,11,25,18.60
2008,09,13,11,26,18.50
2008,09,13,11,27,18.40
2008,09,13,11,28,18.40
2008,09,13,11,29,18.30
2008,09,13,11,30,18.30
2008,09,13,11,31,18.40
2008,09,13,11,32,18.40
2008,09,13,11,33,18.50
2008,09,13,11,34,18.40
2008,09,13,11,35,18.40
2008,09,13,11,36,18.40
2008,09,13,11,37,18.40
2008,09,13,11,38,18.40
2008,09,13,11,39,18.40
2008,09,13,11,40,18.30
2008,09,13,11,41,18.30
2008,09,13,11,42,18.30
2008,09,13,11,43,18.30
2008,09,13,11,44,18.30
2008,09,13,11,45,18.40
2008,09,13,11,46,18.40
2008,09,13,11,47,18.50
2008,09,13,11,48,18.50
2008,09,13,11,49,18.60
2008,09,13,11,50,18.60
2008,09,13,11,51,18.70
2008,09,13,11,52,18.70
2008,09,13,11,53,18.70
2008,09,13,11,54,18.70
2008,09,13,11,55,18.70
2008,09,13,11,56,18.80
2008,09,13,11,57,18.80
2008,09,13,11,58,18.90
2008,09,13,11,59,18.90
2008,09,13,12,00,19.00
2008,09,13,12,01,19.00
2008,09,13,12,02,19.10
2008,09,13,12,03,19.10
2008,09,13,12,04,19.10
2008,09,13,12,05,19.20
2008,09,13,12,06,19.20
2008,09,13,12,07,19.30
2008,09,13,12,08,19.40
2008,09,13,12,09,19.50
2008,09,13,12,10,19.60
2008,09,13,12,11,19.70
2008,09,13,12,12,19.80
2008,09,13,12,13,19.90
2008,09,13,12,14,20.00
2008,09,13,12,15,20.10
2008,09,13,12,16,20.10
2008,09,13,12,17,20.10
2008,09,13,12,18,20.10
2008,09,13,12,19,20.10
2008,09,13,12,20,20.10
2008,09,13,12,21,20.20
2008,09,13,12,22,20.20
2008,09,13,12,23,20.30
2008,09,13,12,24,20.30
2008,09,13,12,25,20.30
2008,09,13,12,26,20.30
2008,09,13,12,27,20.30
2008,09,13,12,28,20.30
2008,09,13,12,29,20.30
2008,09,13,12,30,20.30
2008,09,13,12,31,20.40
2008,09,13,12,32,20.60
2008,09,13,12,33,20.70
2008,09,13,12,34,20.80
2008,09,13,12,35,20.90
2008,09,13,12,36,21.00
2008,09,13,12,37,21.10
2008,09,13,12,38,21.20
2008,09,13,12,39,21.30
2008,09,13,12,40,21.50
2008,09,13,12,41,21.60
2008,09,13,12,42,21.80
2008,09,13,12,43,21.90
2008,09,13,12,44,22.00
2008,09,13,12,45,22.20
2008,09,13,12,46,22.30
2008,09,13,12,47,22.30
2008,09,13,12,48,22.40
2008,09,13,12,49,22.50
2008,09,13,12,50,22.60
2008,09,13,12,51,22.60
2008,09,13,12,52,22.60
2008,09,13,12,53,22.60
2008,09,13,12,54,22.70
2008,09,13,12,55,22.70
2008,09,13,12,56,22.60
2008,09,13,12,57,22.60
2008,09,13,12,58,22.70
2008,09,13,12,59,22.70
2008,09,13,13,00,22.70
2008,09,13,13,01,22.80
2008,09,13,13,02,22.80
2008,09,13,13,03,22.90
2008,09,13,13,04,22.90
2008,09,13,13,05,23.00
2008,09,13,13,06,23.00
2008,09,13,13,07,23.10
2008,09,13,13,08,23.10
2008,09,13,13,09,23.10
2008,09,13,13,10,23.20
2008,09,13,13,11,23.20
2008,09,13,13,12,23.30
2008,09,13,13,13,23.40
2008,09,13,13,14,23.60
2008,09,13,13,15,23.60
2008,09,13,13,16,23.70
2008,09,13,13,17,23.80
2008,09,13,13,18,23.80
2008,09,13,13,19,23.90
2008,09,13,13,20,23.90
2008,09,13,13,21,23.90
2008,09,13,13,22,23.90
2008,09,13,13,23,24.00
2008,09,13,13,24,24.00
2008,09,13,13,25,24.00
2008,09,13,13,26,24.10
2008,09,13,13,27,24.10
2008,09,13,13,28,24.20
2008,09,13,13,29,24.20
2008,09,13,13,30,24.20
2008,09,13,13,31,24.30
2008,09,13,13,32,24.30
2008,09,13,13,33,24.30
2008,09,13,13,34,24.30
2008,09,13,13,35,24.30
2008,09,13,13,36,24.30
2008,09,13,13,37,24.30
2008,09,13,13,38,24.30
2008,09,13,13,39,24.30
2008,09,13,13,40,24.40
2008,09,13,13,41,24.40
2008,09,13,13,42,24.50
2008,09,13,13,43,24.60
2008,09,13,13,44,24.60
2008,09,13,13,45,24.70
2008,09,13,13,46,24.80
2008,09,13,13,47,24.80
2008,09,13,13,48,24.80
2008,09,13,13,49,24.80
2008,09,13,13,50,24.70
2008,09,13,13,51,24.60
2008,09,13,13,52,24.60
2008,09,13,13,53,24.60
2008,09,13,13,54,24.60
2008,09,13,13,55,24.60
2008,09,13,13,56,24.70
2008,09,13,13,57,24.70
2008,09,13,13,58,24.80
2008,09,13,13,59,24.80
2008,09,13,14,00,24.90
2008,09,13,14,01,25.00
2008,09,13,14,02,25.10
2008,09,13,14,03,25.20
2008,09,13,14,04,25.30
2008,09,13,14,05,25.30
2008,09,13,14,06,25.40
2008,09,13,14,07,25.50
2008,09,13,14,08,25.60
2008,09,13,14,09,25.70
2008,09,13,14,10,25.80
2008,09,13,14,11,25.90
2008,09,13,14,12,25.90
2008,09,13,14,13,25.90
2008,09,13,14,14,26.10
2008,09,13,14,15,26.10
2008,09,13,14,16,26.20
2008,09,13,14,17,26.20
2008,09,13,14,18,26.20
2008,09,13,14,19,26.10
2008,09,13,14,20,26.10
2008,09,13,14,21,26.10
2008,09,13,14,22,26.20
2008,09,13,14,23,26.20
2008,09,13,14,24,26.20
2008,09,13,14,25,26.30
2008,09,13,14,26,26.30
2008,09,13,14,27,26.30
2008,09,13,14,28,26.40
2008,09,13,14,29,26.40
2008,09,13,14,30,26.40
2008,09,13,14,31,26.40
2008,09,13,14,32,26.40
2008,09,13,14,33,26.50
2008,09,13,14,34,26.60
2008,09,13,14,35,26.70
2008,09,13,14,36,26.80
2008,09,13,14,37,26.80
2008,09,13,14,38,26.90
2008,09,13,14,39,27.00
2008,09,13,14,40,27.10
2008,09,13,14,41,27.20
2008,09,13,14,42,27.20
2008,09,13,14,43,27.30
2008,09,13,14,44,27.30
2008,09,13,14,45,27.30
2008,09,13,14,46,27.40
2008,09,13,14,47,27.50
2008,09,13,14,48,27.60
2008,09,13,14,49,27.60
2008,09,13,14,50,27.70
2008,09,13,14,51,27.70
2008,09,13,14,52,27.80
2008,09,13,14,53,27.80
2008,09,13,14,54,27.80
2008,09,13,14,55,27.80
2008,09,13,14,56,27.80
2008,09,13,14,57,27.90
2008,09,13,14,58,27.90
2008,09,13,14,59,27.90
2008,09,13,15,00,28.00
2008,09,13,15,01,28.10
2008,09,13,15,02,28.10
2008,09,13,15,03,28.10
2008,09,13,15,04,28.10
2008,09,13,15,05,28.10
2008,09,13,15,06,28.20
2008,09,13,15,07,28.20
2008,09,13,15,08,28.10
2008,09,13,15,09,28.10
2008,09,13,15,10,28.10
2008,09,13,15,11,28.10
2008,09,13,15,12,28.10
2008,09,13,15,13,28.10
2008,09,13,15,14,28.10
2008,09,13,15,15,28.10
2008,09,13,15,16,28.10
2008,09,13,15,17,28.20
2008,09,13,15,18,28.20
2008,09,13,15,19,28.20
2008,09,13,15,20,28.20
2008,09,13,15,21,28.20
2008,09,13,15,22,28.30
2008,09,13,15,23,28.30
2008,09,13,15,24,28.30
2008,09,13,15,25,28.40
2008,09,13,15,26,28.40
2008,09,13,15,27,28.50
2008,09,13,15,28,28.60
2008,09,13,15,29,28.50
2008,09,13,15,30,28.50
2008,09,13,15,31,28.50
2008,09,13,15,32,28.60
2008,09,13,15,33,28.60
2008,09,13,15,34,28.60
2008,09,13,15,35,28.70
2008,09,13,15,36,28.70
2008,09,13,15,37,28.70
2008,09,13,15,38,28.70
2008,09,13,15,39,28.80
2008,09,13,15,40,28.80
2008,09,13,15,41,28.90
2008,09,13,15,42,28.90
2008,09,13,15,43,28.90
2008,09,13,15,44,28.90
2008,09,13,15,45,28.90
2008,09,13,15,46,29.00
2008,09,13,15,47,29.00
2008,09,13,15,48,29.10
2008,09,13,15,49,29.10
2008,09,13,15,50,29.20
2008,09,13,15,51,29.20
2008,09,13,15,52,29.20
2008,09,13,15,53,29.30
2008,09,13,15,54,29.30
2008,09,13,15,55,29.30
2008,09,13,15,56,29.30
2008,09,13,15,57,29.30
2008,09,13,15,58,29.30
2008,09,13,15,59,29.40
2008,09,13,16,00,29.40
2008,09,13,16,01,29.40
2008,09,13,16,02,29.40
2008,09,13,16,03,29.50
2008,09,13,16,04,29.50
2008,09,13,16,05,29.60
2008,09,13,16,06,29.60
2008,09,13,16,07,29.60
2008,09,13,16,08,29.60
2008,09,13,16,09,29.60
2008,09,13,16,10,29.70
2008,09,13,16,11,29.70
2008,09,13,16,12,29.70
2008,09,13,16,13,29.70
2008,09,13,16,14,29.70
2008,09,13,16,15,29.70
2008,09,13,16,16,29.70
2008,09,13,16,17,29.70
2008,09,13,16,18,29.80
2008,09,13,16,19,29.70
2008,09,13,16,20,29.80
2008,09,13,16,21,29.80
2008,09,13,16,22,29.80
2008,09,13,16,23,29.80
2008,09,13,16,24,29.80
2008,09,13,16,25,29.80
2008,09,13,16,26,29.90
2008,09,13,16,27,29.90
2008,09,13,16,28,29.90
2008,09,13,16,29,29.90
2008,09,13,16,30,29.90
2008,09,13,16,31,29.90
2008,09,13,16,32,29.90
2008,09,13,16,33,29.90
2008,09,13,16,34,29.90
2008,09,13,16,35,29.90
2008,09,13,16,36,29.90
2008,09,13,16,37,29.90
2008,09,13,16,38,30.00
2008,09,13,16,39,30.00
2008,09,13,16,40,30.00
2008,09,13,16,41,30.00
2008,09,13,16,42,30.00
2008,09,13,16,43,30.00
2008,09,13,16,44,30.00
2008,09,13,16,45,30.00
2008,09,13,16,46,29.90
2008,09,13,16,47,29.90
2008,09,13,16,48,29.90
2008,09,13,16,49,29.90
2008,09,13,16,50,29.90
2008,09,13,16,51,29.90
2008,09,13,16,52,29.90
2008,09,13,16,53,29.90
2008,09,13,16,54,29.80
2008,09,13,16,55,29.80
2008,09,13,16,56,29.80
2008,09,13,16,57,29.80
2008,09,13,16,58,29.70
2008,09,13,16,59,29.70
2008,09,13,17,00,29.60
2008,09,13,17,01,29.60
2008,09,13,17,02,29.60
2008,09,13,17,03,29.60
2008,09,13,17,04,29.60
2008,09,13,17,05,29.60
2008,09,13,17,06,29.50
2008,09,13,17,07,29.50
2008,09,13,17,08,29.50
2008,09,13,17,09,29.50
2008,09,13,17,10,29.50
2008,09,13,17,11,29.40
2008,09,13,17,12,29.40
2008,09,13,17,13,29.40
2008,09,13,17,14,29.50
2008,09,13,17,15,29.50
2008,09,13,17,16,29.50
2008,09,13,17,17,29.50
2008,09,13,17,18,29.50
2008,09,13,17,19,29.50
2008,09,13,17,20,29.50
2008,09,13,17,21,29.50
2008,09,13,17,22,29.50
2008,09,13,17,23,29.40
2008,09,13,17,24,29.40
2008,09,13,17,25,29.20
2008,09,13,17,26,29.10
2008,09,13,17,27,28.90
2008,09,13,17,28,28.80
2008,09,13,17,29,28.80
2008,09,13,17,30,28.70
2008,09,13,17,31,28.60
2008,09,13,17,32,28.40
2008,09,13,17,33,28.30
2008,09,13,17,34,28.10
2008,09,13,17,35,27.80
2008,09,13,17,36,27.70
2008,09,13,17,37,27.60
2008,09,13,17,38,27.50
2008,09,13,17,39,27.40
2008,09,13,17,40,27.30
2008,09,13,17,41,27.20
2008,09,13,17,42,27.20
2008,09,13,17,43,27.20
2008,09,13,17,44,27.10
2008,09,13,17,45,27.10
2008,09,13,17,46,27.00